Year,Month,Day,Hour,Minute,Value (Times are PST for insolation in W/m^2)
2010,01,30,00,00,0.00
2010,01,30,00,01,0.00
2010,01,30,00,02,0.00
2010,01,30,00,03,0.00
2010,01,30,00,04,0.00
2010,01,30,00,05,0.00
2010,01,30,00,06,0.00
2010,01,30,00,07,0.00
2010,01,30,00,08,0.00
2010,01,30,00,09,0.00
2010,01,30,00,10,0.00
2010,01,30,00,11,0.00
2010,01,30,00,12,0.00
2010,01,30,00,13,0.00
2010,01,30,00,14,0.00
2010,01,30,00,15,0.00
2010,01,30,00,16,0.00
2010,01,30,00,17,0.00
2010,01,30,00,18,0.00
2010,01,30,00,19,0.00
2010,01,30,00,20,0.00
2010,01,30,00,21,0.00
2010,01,30,00,22,0.00
2010,01,30,00,23,0.00
2010,01,30,00,24,0.00
2010,01,30,00,25,0.00
2010,01,30,00,26,0.00
2010,01,30,00,27,0.00
2010,01,30,00,28,0.00
2010,01,30,00,29,0.00
2010,01,30,00,30,0.00
2010,01,30,00,31,0.00
2010,01,30,00,32,0.00
2010,01,30,00,33,0.00
2010,01,30,00,34,0.00
2010,01,30,00,35,0.00
2010,01,30,00,36,0.00
2010,01,30,00,37,0.00
2010,01,30,00,38,0.00
2010,01,30,00,39,0.00
2010,01,30,00,40,0.00
2010,01,30,00,41,0.00
2010,01,30,00,42,0.00
2010,01,30,00,43,0.00
2010,01,30,00,44,0.00
2010,01,30,00,45,0.00
2010,01,30,00,46,0.00
2010,01,30,00,47,0.00
2010,01,30,00,48,0.00
2010,01,30,00,49,0.00
2010,01,30,00,50,0.00
2010,01,30,00,51,0.00
2010,01,30,00,52,0.00
2010,01,30,00,53,0.00
2010,01,30,00,54,0.00
2010,01,30,00,55,0.00
2010,01,30,00,56,0.00
2010,01,30,00,57,0.00
2010,01,30,00,58,0.00
2010,01,30,00,59,0.00
2010,01,30,01,00,0.00
2010,01,30,01,01,0.00
2010,01,30,01,02,0.00
2010,01,30,01,03,0.00
2010,01,30,01,04,0.00
2010,01,30,01,05,0.00
2010,01,30,01,06,0.00
2010,01,30,01,07,0.00
2010,01,30,01,08,0.00
2010,01,30,01,09,0.00
2010,01,30,01,10,0.00
2010,01,30,01,11,0.00
2010,01,30,01,12,0.00
2010,01,30,01,13,0.00
2010,01,30,01,14,0.00
2010,01,30,01,15,0.00
2010,01,30,01,16,0.00
2010,01,30,01,17,0.00
2010,01,30,01,18,0.00
2010,01,30,01,19,0.00
2010,01,30,01,20,0.00
2010,01,30,01,21,0.00
2010,01,30,01,22,0.00
2010,01,30,01,23,0.00
2010,01,30,01,24,0.00
2010,01,30,01,25,0.00
2010,01,30,01,26,0.00
2010,01,30,01,27,0.00
2010,01,30,01,28,0.00
2010,01,30,01,29,0.00
2010,01,30,01,30,0.00
2010,01,30,01,31,0.00
2010,01,30,01,32,0.00
2010,01,30,01,33,0.00
2010,01,30,01,34,0.00
2010,01,30,01,35,0.00
2010,01,30,01,36,0.00
2010,01,30,01,37,0.00
2010,01,30,01,38,0.00
2010,01,30,01,39,0.00
2010,01,30,01,40,0.00
2010,01,30,01,41,0.00
2010,01,30,01,42,0.00
2010,01,30,01,43,0.00
2010,01,30,01,44,0.00
2010,01,30,01,45,0.00
2010,01,30,01,46,0.00
2010,01,30,01,47,0.00
2010,01,30,01,48,0.00
2010,01,30,01,49,0.00
2010,01,30,01,50,0.00
2010,01,30,01,51,0.00
2010,01,30,01,52,0.00
2010,01,30,01,53,0.00
2010,01,30,01,54,0.00
2010,01,30,01,55,0.00
2010,01,30,01,56,0.00
2010,01,30,01,57,0.00
2010,01,30,01,58,0.00
2010,01,30,01,59,0.00
2010,01,30,02,00,0.00
2010,01,30,02,01,0.00
2010,01,30,02,02,0.00
2010,01,30,02,03,0.00
2010,01,30,02,04,0.00
2010,01,30,02,05,0.00
2010,01,30,02,06,0.00
2010,01,30,02,07,0.00
2010,01,30,02,08,0.00
2010,01,30,02,09,0.00
2010,01,30,02,10,0.00
2010,01,30,02,11,0.00
2010,01,30,02,12,0.00
2010,01,30,02,13,0.00
2010,01,30,02,14,0.00
2010,01,30,02,15,0.00
2010,01,30,02,16,0.00
2010,01,30,02,17,0.00
2010,01,30,02,18,0.00
2010,01,30,02,19,0.00
2010,01,30,02,20,0.00
2010,01,30,02,21,0.00
2010,01,30,02,22,0.00
2010,01,30,02,23,0.00
2010,01,30,02,24,0.00
2010,01,30,02,25,0.00
2010,01,30,02,26,0.00
2010,01,30,02,27,0.00
2010,01,30,02,28,0.00
2010,01,30,02,29,0.00
2010,01,30,02,30,0.00
2010,01,30,02,31,0.00
2010,01,30,02,32,0.00
2010,01,30,02,33,0.00
2010,01,30,02,34,0.00
2010,01,30,02,35,0.00
2010,01,30,02,36,0.00
2010,01,30,02,37,0.00
2010,01,30,02,38,0.00
2010,01,30,02,39,0.00
2010,01,30,02,40,0.00
2010,01,30,02,41,0.00
2010,01,30,02,42,0.00
2010,01,30,02,43,0.00
2010,01,30,02,44,0.00
2010,01,30,02,45,0.00
2010,01,30,02,46,0.00
2010,01,30,02,47,0.00
2010,01,30,02,48,0.00
2010,01,30,02,49,0.00
2010,01,30,02,50,0.00
2010,01,30,02,51,0.00
2010,01,30,02,52,0.00
2010,01,30,02,53,0.00
2010,01,30,02,54,0.00
2010,01,30,02,55,0.00
2010,01,30,02,56,0.00
2010,01,30,02,57,0.00
2010,01,30,02,58,0.00
2010,01,30,02,59,0.00
2010,01,30,03,00,0.00
2010,01,30,03,01,0.00
2010,01,30,03,02,0.00
2010,01,30,03,03,0.00
2010,01,30,03,04,0.00
2010,01,30,03,05,0.00
2010,01,30,03,06,0.00
2010,01,30,03,07,0.00
2010,01,30,03,08,0.00
2010,01,30,03,09,0.00
2010,01,30,03,10,0.00
2010,01,30,03,11,0.00
2010,01,30,03,12,0.00
2010,01,30,03,13,0.00
2010,01,30,03,14,0.00
2010,01,30,03,15,0.00
2010,01,30,03,16,0.00
2010,01,30,03,17,0.00
2010,01,30,03,18,0.00
2010,01,30,03,19,0.00
2010,01,30,03,20,0.00
2010,01,30,03,21,0.00
2010,01,30,03,22,0.00
2010,01,30,03,23,0.00
2010,01,30,03,24,0.00
2010,01,30,03,25,0.00
2010,01,30,03,26,0.00
2010,01,30,03,27,0.00
2010,01,30,03,28,0.00
2010,01,30,03,29,0.00
2010,01,30,03,30,0.00
2010,01,30,03,31,0.00
2010,01,30,03,32,0.00
2010,01,30,03,33,0.00
2010,01,30,03,34,0.00
2010,01,30,03,35,0.00
2010,01,30,03,36,0.00
2010,01,30,03,37,0.00
2010,01,30,03,38,0.00
2010,01,30,03,39,0.00
2010,01,30,03,40,0.00
2010,01,30,03,41,0.00
2010,01,30,03,42,0.00
2010,01,30,03,43,0.00
2010,01,30,03,44,0.00
2010,01,30,03,45,0.00
2010,01,30,03,46,0.00
2010,01,30,03,47,0.00
2010,01,30,03,48,0.00
2010,01,30,03,49,0.00
2010,01,30,03,50,0.00
2010,01,30,03,51,0.00
2010,01,30,03,52,0.00
2010,01,30,03,53,0.00
2010,01,30,03,54,0.00
2010,01,30,03,55,0.00
2010,01,30,03,56,0.00
2010,01,30,03,57,0.00
2010,01,30,03,58,0.00
2010,01,30,03,59,0.00
2010,01,30,04,00,0.00
2010,01,30,04,01,0.00
2010,01,30,04,02,0.00
2010,01,30,04,03,0.00
2010,01,30,04,04,0.00
2010,01,30,04,05,0.00
2010,01,30,04,06,0.00
2010,01,30,04,07,0.00
2010,01,30,04,08,0.00
2010,01,30,04,09,0.00
2010,01,30,04,10,0.00
2010,01,30,04,11,0.00
2010,01,30,04,12,0.00
2010,01,30,04,13,0.00
2010,01,30,04,14,0.00
2010,01,30,04,15,0.00
2010,01,30,04,16,0.00
2010,01,30,04,17,0.00
2010,01,30,04,18,0.00
2010,01,30,04,19,0.00
2010,01,30,04,20,0.00
2010,01,30,04,21,0.00
2010,01,30,04,22,0.00
2010,01,30,04,23,0.00
2010,01,30,04,24,0.00
2010,01,30,04,25,0.00
2010,01,30,04,26,0.00
2010,01,30,04,27,0.00
2010,01,30,04,28,0.00
2010,01,30,04,29,0.00
2010,01,30,04,30,0.00
2010,01,30,04,31,0.00
2010,01,30,04,32,0.00
2010,01,30,04,33,0.00
2010,01,30,04,34,0.00
2010,01,30,04,35,0.00
2010,01,30,04,36,0.00
2010,01,30,04,37,0.00
2010,01,30,04,38,0.00
2010,01,30,04,39,0.00
2010,01,30,04,40,0.00
2010,01,30,04,41,0.00
2010,01,30,04,42,0.00
2010,01,30,04,43,0.00
2010,01,30,04,44,0.00
2010,01,30,04,45,0.00
2010,01,30,04,46,0.00
2010,01,30,04,47,0.00
2010,01,30,04,48,0.00
2010,01,30,04,49,0.00
2010,01,30,04,50,0.00
2010,01,30,04,51,0.00
2010,01,30,04,52,0.00
2010,01,30,04,53,0.00
2010,01,30,04,54,0.00
2010,01,30,04,55,0.00
2010,01,30,04,56,0.00
2010,01,30,04,57,0.00
2010,01,30,04,58,0.00
2010,01,30,04,59,0.00
2010,01,30,05,00,0.00
2010,01,30,05,01,0.00
2010,01,30,05,02,0.00
2010,01,30,05,03,0.00
2010,01,30,05,04,0.00
2010,01,30,05,05,0.00
2010,01,30,05,06,0.00
2010,01,30,05,07,0.00
2010,01,30,05,08,0.00
2010,01,30,05,09,0.00
2010,01,30,05,10,0.00
2010,01,30,05,11,0.00
2010,01,30,05,12,0.00
2010,01,30,05,13,0.00
2010,01,30,05,14,0.00
2010,01,30,05,15,0.00
2010,01,30,05,16,0.00
2010,01,30,05,17,0.00
2010,01,30,05,18,0.00
2010,01,30,05,19,0.00
2010,01,30,05,20,0.00
2010,01,30,05,21,0.00
2010,01,30,05,22,0.00
2010,01,30,05,23,0.00
2010,01,30,05,24,0.00
2010,01,30,05,25,0.00
2010,01,30,05,26,0.00
2010,01,30,05,27,0.00
2010,01,30,05,28,0.00
2010,01,30,05,29,0.00
2010,01,30,05,30,0.00
2010,01,30,05,31,0.00
2010,01,30,05,32,0.00
2010,01,30,05,33,0.00
2010,01,30,05,34,0.00
2010,01,30,05,35,0.00
2010,01,30,05,36,0.00
2010,01,30,05,37,0.00
2010,01,30,05,38,0.00
2010,01,30,05,39,0.00
2010,01,30,05,40,0.00
2010,01,30,05,41,0.00
2010,01,30,05,42,0.00
2010,01,30,05,43,0.00
2010,01,30,05,44,0.00
2010,01,30,05,45,0.00
2010,01,30,05,46,0.00
2010,01,30,05,47,0.00
2010,01,30,05,48,0.00
2010,01,30,05,49,0.00
2010,01,30,05,50,0.00
2010,01,30,05,51,0.00
2010,01,30,05,52,0.00
2010,01,30,05,53,0.00
2010,01,30,05,54,0.00
2010,01,30,05,55,0.00
2010,01,30,05,56,0.00
2010,01,30,05,57,0.00
2010,01,30,05,58,0.00
2010,01,30,05,59,0.00
2010,01,30,06,00,0.00
2010,01,30,06,01,0.00
2010,01,30,06,02,0.00
2010,01,30,06,03,0.00
2010,01,30,06,04,0.00
2010,01,30,06,05,0.00
2010,01,30,06,06,0.00
2010,01,30,06,07,0.00
2010,01,30,06,08,0.00
2010,01,30,06,09,0.00
2010,01,30,06,10,0.00
2010,01,30,06,11,0.00
2010,01,30,06,12,0.00
2010,01,30,06,13,0.00
2010,01,30,06,14,0.00
2010,01,30,06,15,0.00
2010,01,30,06,16,0.00
2010,01,30,06,17,0.00
2010,01,30,06,18,0.00
2010,01,30,06,19,0.00
2010,01,30,06,20,0.00
2010,01,30,06,21,0.00
2010,01,30,06,22,0.00
2010,01,30,06,23,0.00
2010,01,30,06,24,0.00
2010,01,30,06,25,0.00
2010,01,30,06,26,0.00
2010,01,30,06,27,0.00
2010,01,30,06,28,0.00
2010,01,30,06,29,0.00
2010,01,30,06,30,0.00
2010,01,30,06,31,0.00
2010,01,30,06,32,0.00
2010,01,30,06,33,0.00
2010,01,30,06,34,0.00
2010,01,30,06,35,0.00
2010,01,30,06,36,0.00
2010,01,30,06,37,0.00
2010,01,30,06,38,0.00
2010,01,30,06,39,0.00
2010,01,30,06,40,0.00
2010,01,30,06,41,0.00
2010,01,30,06,42,0.00
2010,01,30,06,43,0.00
2010,01,30,06,44,0.00
2010,01,30,06,45,0.00
2010,01,30,06,46,0.00
2010,01,30,06,47,0.00
2010,01,30,06,48,0.00
2010,01,30,06,49,0.00
2010,01,30,06,50,0.00
2010,01,30,06,51,0.00
2010,01,30,06,52,0.00
2010,01,30,06,53,0.00
2010,01,30,06,54,0.00
2010,01,30,06,55,0.00
2010,01,30,06,56,0.00
2010,01,30,06,57,0.00
2010,01,30,06,58,0.00
2010,01,30,06,59,0.00
2010,01,30,07,00,0.00
2010,01,30,07,01,0.00
2010,01,30,07,02,0.00
2010,01,30,07,03,0.00
2010,01,30,07,04,0.00
2010,01,30,07,05,0.00
2010,01,30,07,06,0.00
2010,01,30,07,07,0.00
2010,01,30,07,08,0.00
2010,01,30,07,09,0.00
2010,01,30,07,10,0.00
2010,01,30,07,11,0.00
2010,01,30,07,12,0.00
2010,01,30,07,13,0.00
2010,01,30,07,14,0.00
2010,01,30,07,15,0.00
2010,01,30,07,16,0.00
2010,01,30,07,17,0.00
2010,01,30,07,18,0.00
2010,01,30,07,19,0.00
2010,01,30,07,20,0.00
2010,01,30,07,21,0.00
2010,01,30,07,22,0.00
2010,01,30,07,23,0.00
2010,01,30,07,24,0.00
2010,01,30,07,25,0.00
2010,01,30,07,26,0.00
2010,01,30,07,27,0.00
2010,01,30,07,28,0.00
2010,01,30,07,29,0.00
2010,01,30,07,30,0.00
2010,01,30,07,31,0.00
2010,01,30,07,32,0.00
2010,01,30,07,33,0.00
2010,01,30,07,34,0.00
2010,01,30,07,35,0.00
2010,01,30,07,36,0.00
2010,01,30,07,37,0.00
2010,01,30,07,38,0.00
2010,01,30,07,39,0.00
2010,01,30,07,40,0.00
2010,01,30,07,41,0.00
2010,01,30,07,42,0.00
2010,01,30,07,43,0.00
2010,01,30,07,44,0.00
2010,01,30,07,45,0.00
2010,01,30,07,46,0.00
2010,01,30,07,47,0.00
2010,01,30,07,48,0.00
2010,01,30,07,49,0.00
2010,01,30,07,50,0.00
2010,01,30,07,51,0.00
2010,01,30,07,52,0.00
2010,01,30,07,53,0.00
2010,01,30,07,54,0.00
2010,01,30,07,55,0.00
2010,01,30,07,56,0.00
2010,01,30,07,57,0.00
2010,01,30,07,58,0.00
2010,01,30,07,59,0.00
2010,01,30,08,00,0.00
2010,01,30,08,01,0.00
2010,01,30,08,02,0.00
2010,01,30,08,03,0.00
2010,01,30,08,04,0.00
2010,01,30,08,05,0.00
2010,01,30,08,06,0.00
2010,01,30,08,07,0.00
2010,01,30,08,08,1.80
2010,01,30,08,09,5.00
2010,01,30,08,10,5.00
2010,01,30,08,11,5.00
2010,01,30,08,12,5.00
2010,01,30,08,13,7.00
2010,01,30,08,14,7.00
2010,01,30,08,15,7.00
2010,01,30,08,16,7.00
2010,01,30,08,17,7.00
2010,01,30,08,18,7.00
2010,01,30,08,19,7.00
2010,01,30,08,20,7.00
2010,01,30,08,21,7.00
2010,01,30,08,22,7.00
2010,01,30,08,23,8.10
2010,01,30,08,24,9.00
2010,01,30,08,25,9.00
2010,01,30,08,26,9.00
2010,01,30,08,27,9.20
2010,01,30,08,28,11.00
2010,01,30,08,29,11.00
2010,01,30,08,30,11.60
2010,01,30,08,31,12.00
2010,01,30,08,32,12.00
2010,01,30,08,33,12.00
2010,01,30,08,34,12.00
2010,01,30,08,35,12.60
2010,01,30,08,36,14.00
2010,01,30,08,37,15.10
2010,01,30,08,38,16.00
2010,01,30,08,39,16.00
2010,01,30,08,40,17.90
2010,01,30,08,41,18.00
2010,01,30,08,42,18.00
2010,01,30,08,43,18.00
2010,01,30,08,44,18.00
2010,01,30,08,45,18.00
2010,01,30,08,46,18.00
2010,01,30,08,47,18.90
2010,01,30,08,48,21.00
2010,01,30,08,49,21.00
2010,01,30,08,50,21.80
2010,01,30,08,51,23.00
2010,01,30,08,52,23.00
2010,01,30,08,53,21.30
2010,01,30,08,54,21.00
2010,01,30,08,55,20.80
2010,01,30,08,56,19.00
2010,01,30,08,57,19.80
2010,01,30,08,58,21.90
2010,01,30,08,59,23.00
2010,01,30,09,00,24.70
2010,01,30,09,01,25.00
2010,01,30,09,02,25.00
2010,01,30,09,03,25.20
2010,01,30,09,04,26.00
2010,01,30,09,05,26.00
2010,01,30,09,06,27.30
2010,01,30,09,07,28.00
2010,01,30,09,08,28.00
2010,01,30,09,09,28.00
2010,01,30,09,10,28.00
2010,01,30,09,11,28.00
2010,01,30,09,12,29.10
2010,01,30,09,13,30.00
2010,01,30,09,14,31.70
2010,01,30,09,15,32.00
2010,01,30,09,16,33.20
2010,01,30,09,17,35.00
2010,01,30,09,18,35.70
2010,01,30,09,19,37.00
2010,01,30,09,20,37.00
2010,01,30,09,21,37.00
2010,01,30,09,22,37.00
2010,01,30,09,23,38.90
2010,01,30,09,24,39.20
2010,01,30,09,25,40.00
2010,01,30,09,26,40.00
2010,01,30,09,27,39.30
2010,01,30,09,28,37.30
2010,01,30,09,29,35.10
2010,01,30,09,30,37.00
2010,01,30,09,31,37.80
2010,01,30,09,32,40.80
2010,01,30,09,33,42.00
2010,01,30,09,34,42.00
2010,01,30,09,35,40.40
2010,01,30,09,36,40.00
2010,01,30,09,37,39.00
2010,01,30,09,38,39.00
2010,01,30,09,39,39.40
2010,01,30,09,40,41.10
2010,01,30,09,41,42.00
2010,01,30,09,42,42.00
2010,01,30,09,43,42.00
2010,01,30,09,44,42.20
2010,01,30,09,45,44.00
2010,01,30,09,46,44.00
2010,01,30,09,47,44.00
2010,01,30,09,48,44.00
2010,01,30,09,49,44.00
2010,01,30,09,50,44.00
2010,01,30,09,51,44.00
2010,01,30,09,52,44.00
2010,01,30,09,53,44.00
2010,01,30,09,54,44.00
2010,01,30,09,55,44.00
2010,01,30,09,56,44.00
2010,01,30,09,57,44.00
2010,01,30,09,58,46.00
2010,01,30,09,59,46.20
2010,01,30,10,00,47.00
2010,01,30,10,01,48.00
2010,01,30,10,02,49.00
2010,01,30,10,03,49.00
2010,01,30,10,04,47.10
2010,01,30,10,05,47.00
2010,01,30,10,06,47.00
2010,01,30,10,07,46.60
2010,01,30,10,08,46.00
2010,01,30,10,09,46.00
2010,01,30,10,10,46.00
2010,01,30,10,11,46.00
2010,01,30,10,12,47.30
2010,01,30,10,13,49.00
2010,01,30,10,14,49.80
2010,01,30,10,15,52.00
2010,01,30,10,16,55.00
2010,01,30,10,17,56.00
2010,01,30,10,18,57.70
2010,01,30,10,19,58.20
2010,01,30,10,20,60.00
2010,01,30,10,21,60.00
2010,01,30,10,22,60.00
2010,01,30,10,23,60.00
2010,01,30,10,24,58.40
2010,01,30,10,25,58.00
2010,01,30,10,26,56.00
2010,01,30,10,27,56.00
2010,01,30,10,28,55.20
2010,01,30,10,29,54.00
2010,01,30,10,30,54.00
2010,01,30,10,31,53.30
2010,01,30,10,32,53.00
2010,01,30,10,33,53.10
2010,01,30,10,34,54.40
2010,01,30,10,35,56.00
2010,01,30,10,36,57.10
2010,01,30,10,37,59.20
2010,01,30,10,38,60.00
2010,01,30,10,39,58.10
2010,01,30,10,40,56.00
2010,01,30,10,41,56.00
2010,01,30,10,42,56.00
2010,01,30,10,43,56.00
2010,01,30,10,44,57.20
2010,01,30,10,45,59.70
2010,01,30,10,46,60.00
2010,01,30,10,47,60.00
2010,01,30,10,48,60.00
2010,01,30,10,49,60.00
2010,01,30,10,50,60.00
2010,01,30,10,51,60.00
2010,01,30,10,52,61.50
2010,01,30,10,53,62.90
2010,01,30,10,54,65.10
2010,01,30,10,55,67.50
2010,01,30,10,56,69.00
2010,01,30,10,57,69.00
2010,01,30,10,58,69.00
2010,01,30,10,59,67.30
2010,01,30,11,00,68.90
2010,01,30,11,01,69.10
2010,01,30,11,02,70.60
2010,01,30,11,03,72.70
2010,01,30,11,04,75.10
2010,01,30,11,05,76.00
2010,01,30,11,06,76.80
2010,01,30,11,07,77.00
2010,01,30,11,08,76.70
2010,01,30,11,09,73.60
2010,01,30,11,10,70.80
2010,01,30,11,11,66.60
2010,01,30,11,12,63.80
2010,01,30,11,13,62.20
2010,01,30,11,14,62.00
2010,01,30,11,15,62.10
2010,01,30,11,16,63.00
2010,01,30,11,17,62.60
2010,01,30,11,18,62.00
2010,01,30,11,19,62.00
2010,01,30,11,20,62.80
2010,01,30,11,21,64.90
2010,01,30,11,22,69.50
2010,01,30,11,23,72.50
2010,01,30,11,24,75.10
2010,01,30,11,25,78.10
2010,01,30,11,26,80.40
2010,01,30,11,27,81.00
2010,01,30,11,28,82.90
2010,01,30,11,29,83.00
2010,01,30,11,30,82.50
2010,01,30,11,31,81.00
2010,01,30,11,32,82.10
2010,01,30,11,33,83.70
2010,01,30,11,34,85.40
2010,01,30,11,35,89.40
2010,01,30,11,36,91.70
2010,01,30,11,37,95.80
2010,01,30,11,38,98.90
2010,01,30,11,39,102.20
2010,01,30,11,40,106.00
2010,01,30,11,41,111.90
2010,01,30,11,42,113.80
2010,01,30,11,43,118.10
2010,01,30,11,44,121.60
2010,01,30,11,45,123.90
2010,01,30,11,46,123.90
2010,01,30,11,47,120.90
2010,01,30,11,48,118.50
2010,01,30,11,49,116.10
2010,01,30,11,50,116.00
2010,01,30,11,51,116.00
2010,01,30,11,52,114.90
2010,01,30,11,53,112.00
2010,01,30,11,54,109.80
2010,01,30,11,55,109.00
2010,01,30,11,56,107.10
2010,01,30,11,57,107.00
2010,01,30,11,58,107.60
2010,01,30,11,59,109.00
2010,01,30,12,00,109.00
2010,01,30,12,01,109.00
2010,01,30,12,02,110.70
2010,01,30,12,03,111.00
2010,01,30,12,04,113.00
2010,01,30,12,05,113.00
2010,01,30,12,06,111.60
2010,01,30,12,07,107.90
2010,01,30,12,08,105.20
2010,01,30,12,09,102.40
2010,01,30,12,10,102.00
2010,01,30,12,11,102.20
2010,01,30,12,12,104.20
2010,01,30,12,13,105.00
2010,01,30,12,14,106.10
2010,01,30,12,15,107.00
2010,01,30,12,16,107.00
2010,01,30,12,17,107.00
2010,01,30,12,18,104.90
2010,01,30,12,19,104.00
2010,01,30,12,20,101.50
2010,01,30,12,21,97.50
2010,01,30,12,22,97.00
2010,01,30,12,23,95.30
2010,01,30,12,24,93.00
2010,01,30,12,25,89.80
2010,01,30,12,26,87.50
2010,01,30,12,27,85.20
2010,01,30,12,28,84.00
2010,01,30,12,29,83.30
2010,01,30,12,30,81.50
2010,01,30,12,31,81.00
2010,01,30,12,32,80.80
2010,01,30,12,33,78.40
2010,01,30,12,34,76.70
2010,01,30,12,35,72.70
2010,01,30,12,36,69.30
2010,01,30,12,37,69.00
2010,01,30,12,38,63.00
2010,01,30,12,39,59.40
2010,01,30,12,40,55.20
2010,01,30,12,41,51.20
2010,01,30,12,42,47.40
2010,01,30,12,43,44.80
2010,01,30,12,44,42.30
2010,01,30,12,45,40.10
2010,01,30,12,46,39.00
2010,01,30,12,47,39.30
2010,01,30,12,48,40.00
2010,01,30,12,49,40.00
2010,01,30,12,50,41.20
2010,01,30,12,51,43.50
2010,01,30,12,52,46.80
2010,01,30,12,53,53.80
2010,01,30,12,54,59.10
2010,01,30,12,55,62.40
2010,01,30,12,56,63.00
2010,01,30,12,57,62.30
2010,01,30,12,58,62.00
2010,01,30,12,59,62.00
2010,01,30,13,00,63.40
2010,01,30,13,01,67.60
2010,01,30,13,02,69.30
2010,01,30,13,03,69.50
2010,01,30,13,04,69.00
2010,01,30,13,05,69.80
2010,01,30,13,06,75.10
2010,01,30,13,07,81.30
2010,01,30,13,08,84.00
2010,01,30,13,09,83.60
2010,01,30,13,10,82.00
2010,01,30,13,11,79.70
2010,01,30,13,12,77.50
2010,01,30,13,13,76.20
2010,01,30,13,14,75.80
2010,01,30,13,15,74.00
2010,01,30,13,16,72.40
2010,01,30,13,17,69.40
2010,01,30,13,18,67.70
2010,01,30,13,19,67.00
2010,01,30,13,20,67.00
2010,01,30,13,21,67.30
2010,01,30,13,22,69.30
2010,01,30,13,23,70.90
2010,01,30,13,24,72.00
2010,01,30,13,25,70.60
2010,01,30,13,26,69.20
2010,01,30,13,27,69.00
2010,01,30,13,28,67.20
2010,01,30,13,29,69.60
2010,01,30,13,30,73.70
2010,01,30,13,31,77.00
2010,01,30,13,32,81.70
2010,01,30,13,33,87.30
2010,01,30,13,34,89.90
2010,01,30,13,35,91.20
2010,01,30,13,36,93.60
2010,01,30,13,37,95.80
2010,01,30,13,38,97.00
2010,01,30,13,39,97.70
2010,01,30,13,40,95.50
2010,01,30,13,41,90.80
2010,01,30,13,42,83.20
2010,01,30,13,43,75.40
2010,01,30,13,44,68.90
2010,01,30,13,45,65.90
2010,01,30,13,46,63.60
2010,01,30,13,47,62.20
2010,01,30,13,48,60.30
2010,01,30,13,49,57.70
2010,01,30,13,50,56.00
2010,01,30,13,51,56.00
2010,01,30,13,52,57.00
2010,01,30,13,53,58.00
2010,01,30,13,54,59.50
2010,01,30,13,55,62.80
2010,01,30,13,56,65.20
2010,01,30,13,57,67.60
2010,01,30,13,58,69.00
2010,01,30,13,59,69.00
2010,01,30,14,00,69.00
2010,01,30,14,01,69.00
2010,01,30,14,02,69.00
2010,01,30,14,03,70.40
2010,01,30,14,04,75.50
2010,01,30,14,05,81.10
2010,01,30,14,06,87.20
2010,01,30,14,07,93.40
2010,01,30,14,08,97.30
2010,01,30,14,09,98.00
2010,01,30,14,10,97.80
2010,01,30,14,11,96.50
2010,01,30,14,12,93.60
2010,01,30,14,13,90.40
2010,01,30,14,14,87.10
2010,01,30,14,15,84.30
2010,01,30,14,16,81.00
2010,01,30,14,17,78.70
2010,01,30,14,18,75.50
2010,01,30,14,19,72.60
2010,01,30,14,20,68.50
2010,01,30,14,21,67.00
2010,01,30,14,22,65.40
2010,01,30,14,23,65.00
2010,01,30,14,24,63.00
2010,01,30,14,25,62.70
2010,01,30,14,26,61.10
2010,01,30,14,27,60.00
2010,01,30,14,28,58.60
2010,01,30,14,29,58.00
2010,01,30,14,30,58.00
2010,01,30,14,31,60.00
2010,01,30,14,32,60.50
2010,01,30,14,33,62.00
2010,01,30,14,34,62.60
2010,01,30,14,35,64.30
2010,01,30,14,36,68.30
2010,01,30,14,37,69.00
2010,01,30,14,38,68.70
2010,01,30,14,39,66.40
2010,01,30,14,40,64.10
2010,01,30,14,41,62.40
2010,01,30,14,42,62.00
2010,01,30,14,43,62.00
2010,01,30,14,44,62.00
2010,01,30,14,45,61.30
2010,01,30,14,46,56.00
2010,01,30,14,47,56.90
2010,01,30,14,48,59.10
2010,01,30,14,49,61.20
2010,01,30,14,50,62.00
2010,01,30,14,51,62.00
2010,01,30,14,52,61.80
2010,01,30,14,53,59.50
2010,01,30,14,54,58.00
2010,01,30,14,55,56.90
2010,01,30,14,56,54.80
2010,01,30,14,57,51.80
2010,01,30,14,58,49.00
2010,01,30,14,59,47.30
2010,01,30,15,00,49.60
2010,01,30,15,01,51.00
2010,01,30,15,02,51.00
2010,01,30,15,03,51.00
2010,01,30,15,04,51.00
2010,01,30,15,05,51.00
2010,01,30,15,06,50.70
2010,01,30,15,07,48.40
2010,01,30,15,08,46.60
2010,01,30,15,09,45.00
2010,01,30,15,10,42.70
2010,01,30,15,11,40.30
2010,01,30,15,12,40.00
2010,01,30,15,13,38.80
2010,01,30,15,14,36.60
2010,01,30,15,15,34.30
2010,01,30,15,16,33.00
2010,01,30,15,17,30.90
2010,01,30,15,18,30.00
2010,01,30,15,19,25.30
2010,01,30,15,20,22.70
2010,01,30,15,21,21.00
2010,01,30,15,22,21.00
2010,01,30,15,23,22.10
2010,01,30,15,24,24.20
2010,01,30,15,25,25.00
2010,01,30,15,26,23.10
2010,01,30,15,27,23.00
2010,01,30,15,28,23.00
2010,01,30,15,29,22.20
2010,01,30,15,30,21.00
2010,01,30,15,31,19.80
2010,01,30,15,32,20.40
2010,01,30,15,33,21.00
2010,01,30,15,34,21.00
2010,01,30,15,35,21.00
2010,01,30,15,36,21.00
2010,01,30,15,37,21.00
2010,01,30,15,38,21.00
2010,01,30,15,39,21.00
2010,01,30,15,40,22.90
2010,01,30,15,41,23.00
2010,01,30,15,42,23.00
2010,01,30,15,43,23.00
2010,01,30,15,44,24.10
2010,01,30,15,45,25.70
2010,01,30,15,46,26.00
2010,01,30,15,47,26.00
2010,01,30,15,48,25.00
2010,01,30,15,49,25.00
2010,01,30,15,50,24.30
2010,01,30,15,51,23.00
2010,01,30,15,52,24.30
2010,01,30,15,53,25.00
2010,01,30,15,54,25.00
2010,01,30,15,55,26.30
2010,01,30,15,56,28.60
2010,01,30,15,57,30.90
2010,01,30,15,58,32.00
2010,01,30,15,59,32.70
2010,01,30,16,00,33.00
2010,01,30,16,01,33.00
2010,01,30,16,02,30.00
2010,01,30,16,03,28.80
2010,01,30,16,04,25.60
2010,01,30,16,05,23.90
2010,01,30,16,06,21.60
2010,01,30,16,07,21.00
2010,01,30,16,08,21.00
2010,01,30,16,09,21.00
2010,01,30,16,10,20.50
2010,01,30,16,11,19.00
2010,01,30,16,12,19.00
2010,01,30,16,13,19.00
2010,01,30,16,14,18.20
2010,01,30,16,15,18.00
2010,01,30,16,16,17.70
2010,01,30,16,17,15.40
2010,01,30,16,18,13.30
2010,01,30,16,19,12.00
2010,01,30,16,20,12.00
2010,01,30,16,21,12.00
2010,01,30,16,22,11.10
2010,01,30,16,23,11.00
2010,01,30,16,24,10.40
2010,01,30,16,25,9.00
2010,01,30,16,26,9.00
2010,01,30,16,27,9.00
2010,01,30,16,28,9.00
2010,01,30,16,29,9.00
2010,01,30,16,30,8.80
2010,01,30,16,31,7.00
2010,01,30,16,32,7.00
2010,01,30,16,33,6.00
2010,01,30,16,34,5.00
2010,01,30,16,35,5.00
2010,01,30,16,36,5.00
2010,01,30,16,37,5.00
2010,01,30,16,38,5.00
2010,01,30,16,39,5.00
2010,01,30,16,40,5.00
2010,01,30,16,41,5.00
2010,01,30,16,42,5.00
2010,01,30,16,43,5.00
2010,01,30,16,44,5.00
2010,01,30,16,45,5.00
2010,01,30,16,46,5.00
2010,01,30,16,47,5.00
2010,01,30,16,48,5.00
2010,01,30,16,49,5.00
2010,01,30,16,50,5.00
2010,01,30,16,51,0.00
2010,01,30,16,52,0.00
2010,01,30,16,53,0.00
2010,01,30,16,54,0.00
2010,01,30,16,55,0.00
2010,01,30,16,56,0.00
2010,01,30,16,57,0.00
2010,01,30,16,58,0.00
2010,01,30,16,59,0.00
2010,01,30,17,00,0.00
2010,01,30,17,01,0.00
2010,01,30,17,02,0.00
2010,01,30,17,03,0.00
2010,01,30,17,04,0.00
2010,01,30,17,05,0.00
2010,01,30,17,06,0.00
2010,01,30,17,07,0.00
2010,01,30,17,08,0.00
2010,01,30,17,09,0.00
2010,01,30,17,10,0.00
2010,01,30,17,11,0.00
2010,01,30,17,12,0.00
2010,01,30,17,13,0.00
2010,01,30,17,14,0.00
2010,01,30,17,15,0.00
2010,01,30,17,16,0.00
2010,01,30,17,17,0.00
2010,01,30,17,18,0.00
2010,01,30,17,19,0.00
2010,01,30,17,20,0.00
2010,01,30,17,21,0.00
2010,01,30,17,22,0.00
2010,01,30,17,23,0.00
2010,01,30,17,24,0.00
2010,01,30,17,25,0.00
2010,01,30,17,26,0.00
2010,01,30,17,27,0.00
2010,01,30,17,28,0.00
2010,01,30,17,29,0.00
2010,01,30,17,30,0.00
2010,01,30,17,31,0.00
2010,01,30,17,32,0.00
2010,01,30,17,33,0.00
2010,01,30,17,34,0.00
2010,01,30,17,35,0.00
2010,01,30,17,36,0.00
2010,01,30,17,37,0.00
2010,01,30,17,38,0.00
2010,01,30,17,39,0.00
2010,01,30,17,40,0.00
2010,01,30,17,41,0.00
2010,01,30,17,42,0.00
2010,01,30,17,43,0.00